Weather History for Erie, CO

Change the Weather History Date:

Sunday, February 17, 2013

  Actual Average (KBJC) Record (KBJC)
Temperature  
Mean Temperature 48 °F -  
Max Temperature 63 °F 45 °F 66 °F (1997)
Min Temperature 33 °F 25 °F -8 °F (1993)
Degree Days  
Heating Degree Days 16    
Moisture  
Dew Point 1 °F    
Average Humidity 17    
Maximum Humidity 47    
Minimum Humidity 5    
Precipitation  
Precipitation 0.00 in - - ()
Sea Level Pressure  
Sea Level Pressure 29.70 in    
Wind  
Wind Speed 13 mph (WSW)    
Max Wind Speed 24 mph    
Max Gust Speed 38 mph    
Visibility 10 miles    
Events      
Averages and records for this station are not official NWS values.
T = Trace of Precipitation, MM = Missing Value Source: NWS Daily Summary

Daily Weather History Graph

Daily Weather History Graph

Search for Another Location

Airport:

Trip Planner

Search our weather history database for the weather conditions in past years. The results will help you decide how hot, cold, wet, or windy it might be!

Date:

Astronomy

Feb. 17, 2013 Rise Set
Actual Time 6:50 AM MST 5:38 PM MST
Civil Twilight 6:22 AM MST 6:06 PM MST
Nautical Twilight 5:50 AM MST 6:38 PM MST
Astronomical Twilight 5:19 AM MST 7:09 PM MST
Moon 10:45 AM MST (2/17) 12:36 AM MST (2/17)
Length of Visible Light 11h 44m
Length of Day
10h 48m
Waxing Crescent, 49% of the Moon is Illuminated
Feb 17
Waxing Crescent
Feb 17
First Quarter
Feb 25
Full
Mar 4
Last Quarter
Mar 11
New

Hourly Weather History & Observations

Time (MST) Temp. Windchill Dew Point Humidity Pressure Visibility Wind Dir Wind Speed Gust Speed Precip Events Conditions
12:16 AM 35.1 °F - 7.5 °F 32% 29.94 in 10.0 mi Calm Calm - N/A   Clear
12:36 AM 38.8 °F 29.4 °F 6.1 °F 26% 29.93 in 10.0 mi West 18.4 mph 24.2 mph N/A   Clear
12:56 AM 45.7 °F 38.6 °F 4.1 °F 18% 29.92 in 10.0 mi West 17.3 mph 21.9 mph N/A   Clear
1:16 AM 45.7 °F 37.6 °F 4.5 °F 18% 29.92 in 10.0 mi WSW 21.9 mph - N/A   Clear
1:36 AM 45.5 °F 38.3 °F 3.7 °F 18% 29.92 in 10.0 mi WSW 17.3 mph 23.0 mph N/A   Clear
1:56 AM 45.5 °F 40.8 °F 3.4 °F 18% 29.92 in 10.0 mi WSW 9.2 mph - N/A   Clear
2:16 AM 45.5 °F 39.9 °F 3.2 °F 18% 29.91 in 10.0 mi WSW 11.5 mph 17.3 mph N/A   Clear
2:36 AM 44.1 °F 37.7 °F 3.4 °F 19% 29.90 in 10.0 mi WSW 12.7 mph - N/A   Clear
2:56 AM 44.6 °F 39.7 °F 2.7 °F 18% 29.88 in 10.0 mi SW 9.2 mph - N/A   Clear
3:16 AM 46.4 °F 39.8 °F 0.5 °F 15% 29.87 in 10.0 mi SW 16.1 mph 21.9 mph N/A   Clear
3:36 AM 45.3 °F 40.1 °F 0.9 °F 16% 29.86 in 10.0 mi WSW 10.4 mph - N/A   Clear
3:56 AM 46.6 °F - -0.4 °F 14% 29.86 in 10.0 mi WSW 8.1 mph - N/A   Clear
4:16 AM 43.2 °F 40.5 °F 1.0 °F 17% 29.85 in 10.0 mi WSW 4.6 mph - N/A   Clear
4:36 AM 45.0 °F 37.6 °F -1.8 °F 14% 29.84 in 10.0 mi SW 17.3 mph - N/A   Clear
4:56 AM 44.8 °F 38.3 °F -2.4 °F 14% 29.84 in 10.0 mi SW 13.8 mph - N/A   Clear
5:16 AM 43.5 °F 37.9 °F -2.6 °F 15% 29.84 in 10.0 mi SW 10.4 mph - N/A   Clear
5:36 AM 42.8 °F 41.1 °F -3.3 °F 14% 29.83 in 10.0 mi SSW 3.5 mph - N/A   Clear
5:56 AM 41.0 °F 33.9 °F -0.8 °F 17% 29.81 in 10.0 mi South 12.7 mph 17.3 mph N/A   Clear
6:16 AM 41.7 °F 35.6 °F -2.4 °F 16% 29.80 in 10.0 mi SSW 10.4 mph 17.3 mph N/A   Clear
6:36 AM 41.2 °F 36.6 °F -3.6 °F 15% 29.79 in 10.0 mi SW 6.9 mph - N/A   Clear
7:16 AM 36.1 °F 27.3 °F 3.2 °F 25% 29.78 in 10.0 mi SSW 13.8 mph 17.3 mph N/A   Clear
7:36 AM 37.2 °F 29.6 °F 3.0 °F 24% 29.77 in 10.0 mi SSW 11.5 mph 20.7 mph N/A   Clear
7:56 AM 43.0 °F 37.7 °F -1.8 °F 15% 29.76 in 10.0 mi WSW 9.2 mph 21.9 mph N/A   Clear
8:16 AM 42.6 °F 37.2 °F -0.2 °F 17% 29.75 in 10.0 mi South 9.2 mph 18.4 mph N/A   Clear
8:36 AM 43.5 °F 37.1 °F -0.4 °F 16% 29.75 in 10.0 mi South 12.7 mph 17.3 mph N/A   Clear
8:56 AM 44.1 °F 37.7 °F -0.4 °F 16% 29.73 in 10.0 mi SSE 12.7 mph 26.5 mph N/A   Clear
9:16 AM 44.1 °F 39.0 °F 1.0 °F 17% 29.73 in 10.0 mi South 9.2 mph 16.1 mph N/A   Clear
9:36 AM 47.3 °F - -0.0 °F 14% 29.72 in 10.0 mi South 6.9 mph 19.6 mph N/A   Clear
9:56 AM 50.7 °F - -0.6 °F 12% 29.71 in 10.0 mi SSW 13.8 mph 18.4 mph N/A   Clear
10:16 AM 51.6 °F - -1.3 °F 11% 29.71 in 10.0 mi SSE 11.5 mph 18.4 mph N/A   Clear
10:36 AM 55.4 °F - -2.6 °F 9% 29.69 in 10.0 mi SE 8.1 mph - N/A   Clear
10:56 AM 57.0 °F - -4.4 °F 8% 29.68 in 10.0 mi SE 16.1 mph 20.7 mph N/A   Clear
11:16 AM 58.6 °F - -6.2 °F 7% 29.67 in 10.0 mi South 4.6 mph - N/A   Clear
11:36 AM 59.7 °F - -6.7 °F 7% 29.66 in 10.0 mi Calm Calm - N/A   Clear
11:56 AM 62.2 °F - -8.3 °F 6% 29.64 in 10.0 mi West 18.4 mph 27.6 mph N/A   Clear
12:16 PM 61.9 °F - -9.2 °F 5% 29.63 in 10.0 mi West 16.1 mph 26.5 mph N/A   Clear
12:36 PM 62.2 °F - -7.8 °F 6% 29.61 in 10.0 mi West 12.7 mph 19.6 mph N/A   Clear
12:56 PM 62.2 °F - -7.6 °F 6% 29.60 in 10.0 mi West 21.9 mph 31.1 mph N/A   Clear
1:16 PM 62.6 °F - -8.3 °F 6% 29.59 in 10.0 mi West 20.7 mph 32.2 mph N/A   Clear
1:36 PM 62.1 °F - -7.6 °F 6% 29.57 in 10.0 mi West 21.9 mph 34.5 mph N/A   Clear
1:56 PM 62.2 °F - -7.4 °F 6% 29.56 in 10.0 mi West 17.3 mph 38.0 mph N/A   Clear
2:16 PM 62.2 °F - -6.2 °F 6% 29.55 in 10.0 mi West 23.0 mph 32.2 mph N/A   Clear
2:36 PM 63.0 °F - -5.8 °F 6% 29.54 in 10.0 mi WNW 21.9 mph 27.6 mph N/A   Clear
2:56 PM 62.8 °F - -5.3 °F 6% 29.54 in 10.0 mi WNW 23.0 mph 31.1 mph N/A   Clear
3:16 PM 61.5 °F - -6.3 °F 6% 29.54 in 10.0 mi WNW 23.0 mph 32.2 mph N/A   Clear
3:36 PM 60.6 °F - -7.8 °F 6% 29.54 in 10.0 mi WNW 24.2 mph 32.2 mph N/A   Clear
3:56 PM 59.9 °F - -6.2 °F 7% 29.54 in 10.0 mi NW 19.6 mph 29.9 mph N/A   Clear
4:16 PM 59.0 °F - -6.5 °F 7% 29.54 in 10.0 mi WNW 18.4 mph 27.6 mph N/A   Clear
4:36 PM 57.6 °F - -4.2 °F 8% 29.54 in 10.0 mi WNW 15.0 mph 25.3 mph N/A   Clear
4:56 PM 55.9 °F - -3.3 °F 9% 29.54 in 10.0 mi WNW 16.1 mph 26.5 mph N/A   Clear
5:16 PM 54.0 °F - -2.0 °F 10% 29.55 in 10.0 mi West 21.9 mph 26.5 mph N/A   Clear
5:36 PM 52.2 °F - -1.5 °F 11% 29.55 in 10.0 mi West 21.9 mph 27.6 mph N/A   Clear
5:56 PM 51.4 °F - -1.1 °F 12% 29.56 in 10.0 mi West 18.4 mph 26.5 mph N/A   Clear
6:16 PM 46.6 °F - -1.5 °F 14% 29.57 in 10.0 mi WNW 8.1 mph - N/A   Clear
6:36 PM 47.5 °F - 0.7 °F 15% 29.56 in 10.0 mi WNW 16.1 mph 21.9 mph N/A   Clear
6:56 PM 49.6 °F - 2.3 °F 14% 29.56 in 10.0 mi WNW 21.9 mph 29.9 mph N/A   Clear
7:16 PM 49.1 °F - 3.0 °F 15% 29.57 in 10.0 mi WNW 24.2 mph 33.4 mph N/A   Clear
7:36 PM 46.8 °F - 4.1 °F 17% 29.58 in 10.0 mi WNW 17.3 mph 24.2 mph N/A   Clear
7:56 PM 46.8 °F - 4.8 °F 18% 29.59 in 10.0 mi WNW 18.4 mph 24.2 mph N/A   Clear
8:16 PM 42.8 °F 38.6 °F 11.3 °F 28% 29.62 in 10.0 mi NNE 6.9 mph 17.3 mph N/A   Clear
8:36 PM 40.3 °F 31.3 °F 13.8 °F 34% 29.64 in 10.0 mi ENE 18.4 mph 26.5 mph N/A   Clear
8:56 PM 37.9 °F 28.5 °F 16.3 °F 42% 29.65 in 10.0 mi NE 17.3 mph 28.8 mph N/A   Clear
9:16 PM 36.9 °F 27.1 °F 16.3 °F 43% 29.66 in 10.0 mi NE 17.3 mph 24.2 mph N/A   Scattered Clouds
9:36 PM 35.2 °F 27.1 °F 15.4 °F 44% 29.68 in 10.0 mi NE 11.5 mph - N/A   Clear
9:56 PM 35.4 °F - 14.7 °F 43% 29.70 in 10.0 mi Calm Calm - N/A   Clear
10:16 PM 34.0 °F 24.6 °F 12.9 °F 42% 29.70 in 10.0 mi ENE 13.8 mph 18.4 mph N/A   Clear
10:36 PM 35.1 °F 25.5 °F 10.2 °F 36% 29.71 in 10.0 mi North 15.0 mph 18.4 mph N/A   Clear
10:56 PM 35.1 °F 28.6 °F 8.8 °F 34% 29.72 in 10.0 mi NE 8.1 mph 18.4 mph N/A   Mostly Cloudy
11:16 PM 34.7 °F 26.4 °F 7.7 °F 32% 29.73 in 10.0 mi North 11.5 mph - N/A   Scattered Clouds
11:36 PM 34.9 °F 29.0 °F 7.5 °F 32% 29.74 in 10.0 mi ENE 6.9 mph - N/A   Mostly Cloudy
11:56 PM 33.1 °F 25.5 °F 14.7 °F 47% 29.75 in 10.0 mi East 9.2 mph - N/A   Overcast